This demonstration page uses our WeatherBlox Daily Observations layout. Learn more.

39.01783, -85.05884

Hourly Observations for January 12, 2019

Temp ( °F °C ) Dew Point ( °F °C ) Humidity (%) Winds ( mph kmh ) Pressure ( in mb ) Visibility ( mi km ) Precip ( " mm )
12:52 am 00:52 Cloudy 31 -0.6 20 -6.7 64 64 ESE 7 11 30.33 1027 10 16.09344 0 0
1:41 am 01:41 Cloudy with Light Snow 31 -0.6 22 -5.6 69 69 ESE 8 13 30.36 1028 3 4.828032 0.001 0.001
1:52 am 01:52 Cloudy with Light Snow 30 -1.1 23 -5 75 75 E 10 17 30.33 1027 1.25 2.01168 0.01 0.254
2:33 am 02:33 Mostly Cloudy with Scattered Snow Showers 28 -2.2 25 -3.9 88 88 E 7 11 30.39 1029 1 1.609344 0.02 0.508
2:41 am 02:41 Mostly Cloudy with Scattered Snow Showers 28 -2.2 25 -3.9 88 88 E 7 11 30.36 1028 0.75 1.207008 0.02 0.508
2:52 am 02:52 Mostly Cloudy with Scattered Snow Showers 28 -2.2 25 -3.9 88 88 E 8 13 30.33 1027 0.75 1.207008 0.04 1.016
3:08 am 03:08 Cloudy with Light Snow 28 -2.2 25 -3.9 88 88 E 9 15 30.36 1028 1 1.609344 0.01 0.254
3:20 am 03:20 Cloudy with Light Snow 28 -2.2 25 -3.9 88 88 E 9 15 30.36 1028 1.25 2.01168 0.02 0.508
3:52 am 03:52 Cloudy with Light Snow 28 -2.2 25 -3.9 88 88 E 9 15 30.3 1026 1 1.609344 0.04 1.016
4:52 am 04:52 Cloudy with Light Snow 28 -2.2 25 -3.9 88 88 E 8 13 30.3 1026 1 1.609344 0.04 1.016
4:59 am 04:59 Cloudy with Light Snow 28 -2.2 25 -3.9 88 88 E 9 15 30.33 1027 1 1.609344 0.01 0.254
5:07 am 05:07 Cloudy with Light Snow 28 -2.2 25 -3.9 88 88 E 8 13 30.33 1027 0.75 1.207008 0.01 0.254
5:25 am 05:25 Cloudy with Light Snow 28 -2.2 26 -3.3 92 92 E 8 13 30.33 1027 1 1.609344 0.03 0.762
5:52 am 05:52 Cloudy with Light Snow 28 -2.2 26 -3.3 92 92 E 7 11 30.3 1026 1 1.609344 0.05 1.27
6:52 am 06:52 Cloudy with Light Snow 28 -2.2 25 -3.9 88 88 E 8 13 30.3 1026 2 3.218688 0.03 0.762
7:52 am 07:52 Cloudy with Light Snow 29 -1.7 26 -3.3 89 89 E 9 15 30.3 1026 1.25 2.01168 0.02 0.508
8:52 am 08:52 Cloudy with Light Snow 29 -1.7 26 -3.3 89 89 E 10 17 30.3 1026 1 1.609344 0.03 0.762
9:45 am 09:45 Cloudy with Light Snow 29 -1.7 26 -3.3 89 89 E 10 17 30.39 1029 3 4.828032 0.01 0.254
9:52 am 09:52 Cloudy with Light Snow 29 -1.7 26 -3.3 89 89 E 9 15 30.33 1027 3 4.828032 0.01 0.254
10:04 am 10:04 Cloudy with Light Snow 29 -1.7 26 -3.3 89 89 E 10 17 30.39 1029 3 4.828032 0.001 0.001
10:52 am 10:52 Cloudy with Light Rain 30 -1.1 27 -2.8 88 88 E 12 19 30.33 1027 4 6.437376 0.001 0.001
11:52 am 11:52 Cloudy with Mist and Fog 31 -0.6 28 -2.2 89 89 ESE 7 11 30.3 1026 6 9.656064 0.001 0.001
12:52 pm 12:52 Cloudy with Mist and Fog 32 0 28 -2.2 85 85 E 8 13 30.27 1025 5 8.04672 0 0
1:52 pm 13:52 Cloudy with Light Snow 33 0.6 29 -1.7 85 85 E 8 13 30.24 1024 3 4.828032 0.01 0.254
2:37 pm 14:37 Cloudy with Mist and Fog 33 0.6 29 -1.7 85 85 E 9 15 30.27 1025 5 8.04672 0.001 0.001
2:52 pm 14:52 Cloudy with Mist and Fog 33 0.6 29 -1.7 85 85 E 12 19 30.21 1023 6 9.656064 0.001 0.001
3:52 pm 15:52 Cloudy with Light Rain 33 0.6 30 -1.1 89 89 ENE 8 13 30.21 1023 5 8.04672 0.001 0.001
4:52 pm 16:52 Cloudy with Mist and Fog 33 0.6 30 -1.1 89 89 ENE 10 17 30.18 1022 4 6.437376 0.01 0.254
5:05 pm 17:05 Cloudy with Mist and Fog 33 0.6 30 -1.1 89 89 E 10 17 30.24 1024 4 6.437376 0 0
5:52 pm 17:52 Cloudy with Mist and Fog 33 0.6 31 -0.6 92 92 ESE 7 11 30.21 1023 5 8.04672 0.001 0.001
6:09 pm 18:09 Cloudy with Light Snow 33 0.6 30 -1.1 89 89 E 9 15 30.27 1025 2.5 4.02336 0.001 0.001
6:16 pm 18:16 Cloudy with Light Snow 33 0.6 30 -1.1 89 89 ESE 8 13 30.27 1025 1.75 2.816352 0.001 0.001
6:30 pm 18:30 Cloudy with Light Snow 33 0.6 31 -0.6 92 92 E 10 17 30.27 1025 1.75 2.816352 0.001 0.001
6:32 pm 18:32 Cloudy with Light Snow 33 0.6 31 -0.6 92 92 E 10 17 30.27 1025 2 3.218688 0.001 0.001
6:52 pm 18:52 Cloudy with Light Snow 33 0.6 31 -0.6 92 92 E 10 17 30.21 1023 3 4.828032 0.01 0.254
7:23 pm 19:23 Cloudy with Light Snow 33 0.6 31 -0.6 92 92 ESE 8 13 30.27 1025 2.5 4.02336 0.001 0.001
7:29 pm 19:29 Cloudy with Light Snow 33 0.6 31 -0.6 92 92 E 8 13 30.27 1025 1.75 2.816352 0.001 0.001
7:31 pm 19:31 Cloudy with Light Snow 33 0.6 31 -0.6 92 92 E 8 13 30.27 1025 2 3.218688 0.001 0.001
7:40 pm 19:40 Cloudy with Light Snow 33 0.6 31 -0.6 92 92 E 9 15 30.27 1025 3 4.828032 0.01 0.254
7:52 pm 19:52 Cloudy with Mist and Fog 33 0.6 31 -0.6 92 92 E 10 17 30.21 1023 4 6.437376 0.01 0.254
8:52 pm 20:52 Cloudy with Light Snow 33 0.6 31 -0.6 92 92 E 9 15 30.21 1023 3 4.828032 0.03 0.762
8:54 pm 20:54 Cloudy with Light Snow 33 0.6 31 -0.6 92 92 E 9 15 30.24 1024 2.5 4.02336 0.01 0.254
9:52 pm 21:52 Cloudy with Light Rain 33 0.6 31 -0.6 92 92 ENE 10 17 30.18 1022 2.5 4.02336 0.04 1.016
9:55 pm 21:55 Cloudy with Light Rain 33 0.6 31 -0.6 92 92 ENE 10 17 30.24 1024 1.5 2.414016 0.001 0.001
10:52 pm 22:52 Cloudy with Light Rain 33 0.6 31 -0.6 92 92 ENE 12 19 30.18 1022 1.5 2.414016 0.001 0.001
11:52 pm 23:52 Cloudy with Light Rain 34 1.1 31 -0.6 89 89 ENE 12 19 30.12 1020 1.5 2.414016 0.01 0.254

Powered by AerisWeather